SCP
0 0 0 0 0 0 0 0 0 0 0 0 0 0 0 0 0 0 0 0 0 0 0 0 0 0 0 0 0 0 0 0 0 0 0 0 0 0 0 0 0 0 1 0 1
0 0 0 0 0 0 0 0 0 0 0 0 0 0 0 0 0 0 0 0 0 0 0 0 0 0 0 0 0 0 0 0 0 0 0 0 0 0 0 0 0 1 1 1 1
0 0 0 0 0 0 0 0 0 0 0 0 0 0 0 0 -0 -0 0 0 0 0 0 0 0 0 0 0 0 0 0 0 0 0 0 0 0 0 0 0 0 0 -0 1 2
0 0 0 0 0 0 0 0 0 0 0 0 0 0 0 0 0 0 0 0 0 0 0 0 0 0 0 0 0 0 0 0 0 0 0 0 0 0 0 0 0 0 0 1 1
0 0 0 0 0 0 0 0 0 0 0 0 0 0 0 0 0 0 0 0 0 0 0 0 0 0 0 0 0 0 0 0 0 0 0 0 0 0 0 0 0 0 0 1 1
0 0 0 0 0 0 0 0 0 0 0 0 0 0 0 0 0 0 0 0 0 0 0 0 0 0 0 0 0 0 0 0 0 0 0 0 0 0 0 0 0 0 1 1 1
0 0 0 0 0 0 0 0 0 0 0 0 0 0 0 0 0 0 0 0 0 0 0 0 0 0 0 0 0 0 0 0 0 0 0 0 0 0 0 0 0 0 0 1 1
0 0 0 0 0 0 0 0 0 0 0 0 0 0 0 0 0 0 0 0 0 0 0 0 0 0 0 0 0 0 0 0 0 0 0 0 0 0 0 0 0 0 0 0 0
0 0 0 0 0 0 0 0 0 0 0 0 0 0 0 0 0 0 0 0 0 0 0 0 0 0 0 0 0 0 0 0 0 0 0 0 0 0 0 0 0 0 0 0 0
0 0 0 0 0 0 0 0 0 0 0 0 0 0 0 0 0 0 0 0 0 0 0 0 0 0 0 0 0 0 0 0 0 0 0 0 0 0 0 0 0 0 0 0 0
0 0 0 0 0 0 0 0 0 0 0 0 0 0 0 0 0 0 0 0 0 0 0 0 0 0 0 0 0 0 0 0 0 0 0 0 0 0 0 0 0 0 0 0 0
0 0 0 0 0 0 0 0 0 0 0 0 0 0 0 0 0 0 0 0 0 0 0 0 0 0 0 0 0 0 0 0 0 0 0 0 0 0 0 0 0 0 0 0 0
0 0 0 0 0 0 0 0 0 0 0 0 0 0 0 0 0 0 0 0 0 0 0 0 0 0 0 0 0 0 0 0 0 0 0 0 0 0 0 0 0 0 0 0 0
0 0 0 0 0 0 0 0 0 0 0 0 0 0 0 0 0 0 0 0 0 0 0 0 0 0 0 0 0 0 0 0 0 0 0 0 0 0 0 0 0 0 0 0 0
0 0 0 0 0 0 0 0 0 0 0 0 0 -0 -0 0 0 0 0 0 0 0 0 0 0 0 0 0 0 0 0 0 0 0 0 0 0 0 0 0 0 0 0 0 0
0 0 0 0 0 0 0 0 0 0 0 0 0 0 0 0 0 0 0 0 0 0 0 0 0 0 0 0 0 0 0 0 0 0 0 0 0 0 0 0 0 0 0 0 0
0 0 0 0 0 0 0 0 0 0 0 -0 0 -0 0 -0 -0 0 0 0 0 0 0 0 0 0 0 0 0 0 0 0 0 0 0 0 0 0 0 0 0 0 0 0 0
0 0 0 0 0 0 0 0 0 0 0 0 0 0 0 0 -0 -0 -0 0 0 0 0 0 0 0 0 0 0 0 0 0 0 0 0 0 0 0 0 0 0 0 0 0 0
0 0 0 0 0 0 0 0 0 0 0 -0 0 -0 0 -0 -0 0 0 0 0 0 0 0 0 0 0 0 0 0 0 0 0 0 0 0 0 0 0 0 0 0 0 0 0
0 0 0 0 0 0 0 0 0 0 0 0 -0 -0 -0 0 -0 -0 0 0 0 0 0 0 0 0 0 0 0 0 0 0 0 0 0 0 0 0 0 0 0 0 0 0 0
0 0 0 0 0 0 0 0 0 0 -0 0 0 -0 -0 0 0 0 -0 0 -0 0 0 0 0 0 0 0 0 0 0 0 0 0 0 0 0 0 0 0 0 0 0 0 0
0 0 0 0 -0 0 0 0 0 -0 0 0 -0 -0 0 0 0 0 -0 -0 -0 -0 0 0 0 0 0 0 0 0 0 0 0 0 0 0 0 0 0 0 0 0 0 0 0
0 0 0 0 0 0 0 0 0 0 0 0 0 -0 -0 0 0 0 -0 -0 -0 -0 0 0 0 0 0 0 0 0 0 0 0 0 0 0 0 0 0 0 0 0 0 0 0
0 0 0 0 0 0 0 0 -0 0 0 0 0 -0 0 0 -0 0 0 0 -0 0 0 0 0 0 0 0 0 0 0 0 0 0 0 0 0 0 0 0 0 0 0 0 0
0 0 -0 0 0 0 0 0 -0 0 0 0 0 -0 -0 0 0 0 0 0 0 0 0 0 0 0 0 0 0 0 0 0 0 0 0 0 0 -0 0 0 0 0 -0 0 -0
0 0 0 0 0 -0 0 0 -0 -0 0 0 -0 -0 -0 0 0 0 0 0 0 0 0 0 0 0 0 0 0 0 0 0 0 0 0 0 0 0 0 0 0 0 -0 0 0
0 0 0 -0 0 0 0 -0 -0 -0 0 0 -0 -0 -0 0 -0 0 0 0 0 0 0 0 0 0 0 0 0 0 0 0 0 0 0 0 0 0 0 0 0 0 -0 -0 0
Wind_Speed_500mb
44 45 46 47 46 47 48 47 47 47 48 47 48 50 51 51 53 55 69 56 48 23 48 26 23 28 29 22 30 16 4 9 11 15 12 11 5 5 16 33 30 20 20 32 58
49 49 49 48 49 49 49 48 48 48 49 51 51 51 51 54 57 68 50 37 35 40 46 51 44 30 21 20 18 12 10 18 12 12 6 14 11 20 13 33 14 23 7 32 61
52 53 53 53 54 53 51 50 50 48 49 48 49 52 49 45 52 9 3 10 7 15 48 41 53 36 18 21 21 14 17 9 11 14 30 22 19 34 14 21 17 7 25 53 66
53 54 55 56 56 56 55 54 53 49 49 51 51 45 29 23 13 8 13 5 8 17 44 45 47 26 14 16 28 12 14 23 12 28 21 6 19 17 30 40 30 35 27 54 73
56 57 59 61 62 62 61 60 60 57 54 53 51 35 25 17 61 45 36 38 37 17 49 56 48 35 16 11 21 10 8 24 44 42 45 54 35 32 58 50 52 45 27 65 79
57 58 59 60 62 62 62 62 62 61 57 55 53 28 32 39 63 29 26 33 42 42 47 70 42 49 21 12 18 12 40 44 29 45 37 14 22 34 46 27 43 31 20 58 79
59 61 63 65 66 66 67 68 67 64 64 63 49 34 50 82 65 54 48 30 25 33 42 68 44 44 21 6 38 35 15 13 14 21 17 31 28 47 41 20 26 31 24 33 71
63 64 66 67 68 71 72 74 71 66 70 66 53 37 49 59 75 87 78 81 51 55 55 41 70 36 7 15 16 10 11 22 8 15 20 24 37 22 33 35 42 34 31 37 54
64 66 67 68 71 75 79 78 74 76 79 62 30 32 33 36 50 49 47 67 70 70 50 46 41 35 20 5 9 7 5 7 8 21 15 21 5 19 32 32 28 24 30 38 48
69 71 73 74 74 78 81 82 70 40 21 13 17 16 39 48 27 21 8 17 25 42 47 41 27 14 16 18 24 11 8 10 13 8 14 15 11 19 39 28 35 38 34 38 46
75 77 77 80 79 80 87 60 33 7 6 15 25 42 47 29 38 18 19 22 31 34 28 42 22 45 42 34 15 12 13 10 9 14 11 12 11 21 26 25 18 33 30 37 39
77 80 82 85 84 83 39 34 32 24 31 42 71 98 101 98 73 89 38 21 22 25 32 18 55 33 31 31 32 30 21 10 8 10 6 14 18 20 14 12 29 45 44 43 46
80 82 83 89 90 46 49 55 13 28 14 32 58 55 52 52 103 109 79 55 14 27 49 48 10 36 34 39 38 35 28 12 11 8 3 3 17 10 15 13 32 41 53 49 51
81 82 83 96 59 53 36 24 19 27 9 18 12 12 18 28 15 47 80 67 32 39 37 32 43 49 49 43 32 39 19 16 17 4 4 7 9 12 11 13 3 30 42 53 50
83 84 84 72 45 37 38 25 20 13 8 10 7 6 8 18 35 15 26 81 43 36 33 29 39 40 47 48 30 24 25 21 18 10 1 3 4 14 7 8 7 9 22 36 41
86 83 77 34 40 39 39 34 6 3 16 11 3 33 39 23 38 4 12 48 18 32 42 33 43 41 29 34 39 14 14 14 6 9 9 11 13 12 3 10 6 8 26 18 9
84 79 22 42 43 44 33 28 5 9 15 7 23 28 38 16 19 2 17 26 20 22 25 39 36 35 39 33 29 30 19 5 4 7 10 18 10 4 15 15 8 16 29 24 16
83 38 24 53 65 48 34 8 10 13 19 28 20 38 17 13 13 15 15 18 5 8 15 25 34 34 32 30 15 36 19 11 11 10 9 14 11 4 8 8 29 45 42 37 36
74 18 40 64 65 39 12 6 4 9 16 22 33 14 9 10 8 10 1 5 12 14 8 15 11 32 28 16 38 20 26 19 8 2 11 11 6 8 9 20 27 36 48 45 50
69 23 50 54 53 35 4 12 8 16 17 13 12 10 7 9 8 3 7 12 7 18 7 7 8 16 45 37 26 20 20 13 4 8 8 2 7 10 5 15 18 21 36 46 61
50 20 49 52 25 20 7 10 24 32 39 7 13 15 14 8 9 4 11 13 17 19 21 10 4 6 14 14 43 16 16 9 13 5 10 8 5 9 8 8 25 20 39 56 63
28 8 44 51 16 8 11 28 39 26 21 15 14 24 14 12 5 6 11 7 16 22 13 15 5 7 10 11 27 11 13 12 10 7 6 9 4 2 8 7 18 31 53 62 66
36 14 30 40 13 16 19 30 13 23 22 8 8 6 6 9 8 16 8 14 19 20 22 22 7 9 7 7 2 10 10 12 12 7 9 11 7 5 11 9 22 41 48 59 66
21 10 16 14 36 26 33 15 36 44 19 12 11 14 11 6 11 7 8 12 13 4 30 20 6 7 10 14 9 10 12 23 14 9 10 6 19 15 18 17 17 40 55 58 69
23 7 8 11 23 30 30 17 38 29 11 22 7 35 24 8 7 6 10 7 11 9 9 6 8 1 11 13 8 8 22 19 12 16 13 17 26 31 24 16 19 49 55 60 55
18 12 13 27 30 33 17 19 34 40 12 19 23 36 21 9 11 11 19 9 8 6 8 10 6 3 9 15 13 9 15 26 10 14 21 34 19 19 28 28 41 47 51 52 49
30 30 21 17 14 20 15 27 45 39 23 30 37 32 16 11 25 32 23 24 6 8 6 6 5 7 2 8 13 8 5 12 10 5 39 15 19 33 26 29 37 49 50 47 42
Wind_Direction_500mb
343 340 339 338 335 332 330 328 325 321 316 314 311 308 307 305 302 293 281 287 280 255 231 227 216 207 200 216 207 202 208 223 211 174 233 229 139 263 272 289 329 339 264 257 182
340 339 338 336 334 332 329 326 323 319 316 315 312 308 306 308 309 295 298 279 256 233 226 219 214 199 191 213 201 183 204 213 200 198 256 263 290 300 292 298 329 313 321 188 171
338 337 336 334 332 329 327 324 322 319 315 312 310 309 309 314 319 304 164 113 113 236 220 217 218 202 203 207 194 207 235 209 246 237 231 256 285 270 260 282 308 196 176 175 173
336 334 332 330 328 327 325 321 317 313 309 308 308 305 311 307 284 209 220 225 315 239 205 197 204 192 202 205 207 229 213 224 249 244 259 248 280 274 247 258 279 289 239 199 187
335 334 332 330 328 327 324 320 316 313 311 306 302 298 297 248 255 257 255 259 261 266 207 188 180 194 183 206 225 227 242 224 234 256 261 268 266 274 269 266 276 284 240 211 198
336 333 330 328 325 323 318 314 310 309 308 303 296 287 261 252 284 290 249 253 249 236 209 195 202 194 216 236 196 216 214 239 249 255 257 255 267 252 271 275 265 235 219 213 206
336 333 330 328 327 322 317 313 310 311 303 297 291 271 257 245 272 274 269 252 229 215 215 211 197 186 207 281 254 251 273 279 233 234 234 250 264 253 269 255 238 246 208 206 212
337 334 331 328 325 321 316 313 310 306 297 292 282 262 257 267 286 268 253 247 222 207 208 222 216 203 180 276 324 189 162 250 212 194 242 182 253 280 281 230 229 227 207 190 196
337 335 332 329 325 323 321 315 313 306 294 284 252 231 265 277 261 274 261 247 240 218 218 210 209 215 219 179 318 280 202 185 265 194 215 179 147 256 236 193 200 202 210 205 202
336 335 335 331 329 326 320 317 320 315 325 141 207 218 255 247 261 269 294 220 195 205 208 209 206 186 203 188 210 208 194 221 212 228 212 241 217 268 265 232 221 228 230 216 216
336 336 337 336 332 328 325 334 350 305 317 260 244 225 267 290 287 299 254 178 187 178 181 185 199 207 196 201 184 218 226 210 190 239 201 244 231 256 260 250 236 239 227 215 212
335 335 337 336 332 326 323 324 330 312 296 263 257 256 256 262 265 253 244 176 185 192 177 168 218 201 198 197 206 229 237 213 269 264 175 278 268 257 261 233 235 243 238 219 213
335 335 338 334 330 330 319 312 309 328 268 278 260 254 249 234 240 254 225 230 190 193 198 200 211 191 199 199 202 213 216 167 200 11 275 356 305 295 274 225 242 253 253 248 215
336 336 338 332 333 325 345 331 288 297 284 279 242 280 237 220 244 269 234 215 214 204 193 221 232 187 193 211 191 213 177 193 233 123 217 115 271 304 260 230 208 249 255 255 245
336 336 336 333 320 329 333 339 320 175 301 286 201 98 164 165 289 332 275 195 206 194 192 200 184 209 203 202 201 210 178 195 222 176 304 244 42 271 301 116 204 250 252 249 248
339 336 335 347 336 333 340 324 202 241 251 268 341 353 344 350 323 354 123 178 218 206 200 207 185 204 211 203 201 137 161 200 169 117 241 205 159 281 357 314 201 85 37 21 304
343 342 8 358 336 322 322 317 238 212 313 310 345 336 317 331 4 354 170 197 166 184 195 197 217 193 187 188 191 177 155 174 195 191 211 157 151 240 309 304 310 98 65 60 70
348 2 14 3 346 328 308 240 206 266 267 337 348 320 276 26 31 25 337 178 241 199 160 193 208 208 187 202 169 190 154 163 170 152 158 143 198 247 311 21 75 90 92 91 94
349 23 7 355 345 338 324 279 324 330 326 323 321 303 331 15 289 32 239 218 211 178 163 159 240 193 213 188 170 186 197 200 66 286 110 145 114 106 49 52 62 74 82 85 102
350 355 0 353 344 337 8 306 289 296 291 282 295 249 277 300 303 173 248 198 194 229 177 174 162 229 204 216 236 167 167 178 120 178 126 156 128 147 101 91 87 84 91 94 104
354 346 357 353 6 0 357 289 300 299 296 278 280 284 260 292 280 283 282 146 194 185 185 198 145 224 186 157 206 205 186 163 136 148 148 133 187 167 169 152 129 121 113 113 110
358 335 350 1 29 337 326 310 302 297 316 279 260 249 265 288 281 295 244 226 178 149 198 189 165 134 158 110 175 145 198 157 155 210 55 116 231 99 153 132 134 123 123 119 118
340 297 357 8 6 346 321 317 292 311 320 305 299 331 319 272 228 224 247 275 159 175 183 173 212 99 91 79 121 149 188 136 112 108 173 118 184 154 135 138 125 126 124 119 121
353 329 333 348 356 335 327 324 335 331 314 311 247 319 275 262 217 305 276 35 177 148 209 139 95 142 152 152 145 155 154 173 134 118 151 148 143 171 178 160 128 134 128 121 123
9 330 315 311 338 323 325 307 332 344 332 323 305 354 2 11 30 290 354 7 80 107 350 99 128 100 99 84 136 150 148 152 135 147 134 172 155 181 158 148 128 127 120 116 114
359 326 303 291 302 327 343 332 324 329 312 324 333 331 333 22 343 320 344 345 7 86 21 0 89 59 33 41 44 71 165 157 112 114 81 120 88 129 118 132 121 118 115 109 111
341 326 280 294 314 324 330 323 321 322 306 311 320 317 308 343 314 292 272 284 282 359 36 54 52 75 287 16 360 89 334 107 98 143 138 145 157 128 118 92 100 104 103 102 112
Wind_Speed_850mb
44 45 46 47 46 47 48 47 47 47 48 47 48 50 51 51 53 55 69 56 48 23 48 26 23 28 29 22 30 16 4 9 11 15 12 11 5 5 16 33 30 20 20 32 58
49 49 49 48 49 49 49 48 48 48 49 51 51 51 51 54 57 68 50 37 35 40 46 51 44 30 21 20 18 12 10 18 12 12 6 14 11 20 13 33 14 23 7 32 61
52 53 53 53 54 53 51 50 50 48 49 48 49 52 49 45 52 9 3 10 7 15 48 41 53 36 18 21 21 14 17 9 11 14 30 22 19 34 14 21 17 7 25 53 66
53 54 55 56 56 56 55 54 53 49 49 51 51 45 29 23 13 8 13 5 8 17 44 45 47 26 14 16 28 12 14 23 12 28 21 6 19 17 30 40 30 35 27 54 73
56 57 59 61 62 62 61 60 60 57 54 53 51 35 25 17 61 45 36 38 37 17 49 56 48 35 16 11 21 10 8 24 44 42 45 54 35 32 58 50 52 45 27 65 79
57 58 59 60 62 62 62 62 62 61 57 55 53 28 32 39 63 29 26 33 42 42 47 70 42 49 21 12 18 12 40 44 29 45 37 14 22 34 46 27 43 31 20 58 79
59 61 63 65 66 66 67 68 67 64 64 63 49 34 50 82 65 54 48 30 25 33 42 68 44 44 21 6 38 35 15 13 14 21 17 31 28 47 41 20 26 31 24 33 71
63 64 66 67 68 71 72 74 71 66 70 66 53 37 49 59 75 87 78 81 51 55 55 41 70 36 7 15 16 10 11 22 8 15 20 24 37 22 33 35 42 34 31 37 54
64 66 67 68 71 75 79 78 74 76 79 62 30 32 33 36 50 49 47 67 70 70 50 46 41 35 20 5 9 7 5 7 8 21 15 21 5 19 32 32 28 24 30 38 48
69 71 73 74 74 78 81 82 70 40 21 13 17 16 39 48 27 21 8 17 25 42 47 41 27 14 16 18 24 11 8 10 13 8 14 15 11 19 39 28 35 38 34 38 46
75 77 77 80 79 80 87 60 33 7 6 15 25 42 47 29 38 18 19 22 31 34 28 42 22 45 42 34 15 12 13 10 9 14 11 12 11 21 26 25 18 33 30 37 39
77 80 82 85 84 83 39 34 32 24 31 42 71 98 101 98 73 89 38 21 22 25 32 18 55 33 31 31 32 30 21 10 8 10 6 14 18 20 14 12 29 45 44 43 46
80 82 83 89 90 46 49 55 13 28 14 32 58 55 52 52 103 109 79 55 14 27 49 48 10 36 34 39 38 35 28 12 11 8 3 3 17 10 15 13 32 41 53 49 51
81 82 83 96 59 53 36 24 19 27 9 18 12 12 18 28 15 47 80 67 32 39 37 32 43 49 49 43 32 39 19 16 17 4 4 7 9 12 11 13 3 30 42 53 50
83 84 84 72 45 37 38 25 20 13 8 10 7 6 8 18 35 15 26 81 43 36 33 29 39 40 47 48 30 24 25 21 18 10 1 3 4 14 7 8 7 9 22 36 41
86 83 77 34 40 39 39 34 6 3 16 11 3 33 39 23 38 4 12 48 18 32 42 33 43 41 29 34 39 14 14 14 6 9 9 11 13 12 3 10 6 8 26 18 9
84 79 22 42 43 44 33 28 5 9 15 7 23 28 38 16 19 2 17 26 20 22 25 39 36 35 39 33 29 30 19 5 4 7 10 18 10 4 15 15 8 16 29 24 16
83 38 24 53 65 48 34 8 10 13 19 28 20 38 17 13 13 15 15 18 5 8 15 25 34 34 32 30 15 36 19 11 11 10 9 14 11 4 8 8 29 45 42 37 36
74 18 40 64 65 39 12 6 4 9 16 22 33 14 9 10 8 10 1 5 12 14 8 15 11 32 28 16 38 20 26 19 8 2 11 11 6 8 9 20 27 36 48 45 50
69 23 50 54 53 35 4 12 8 16 17 13 12 10 7 9 8 3 7 12 7 18 7 7 8 16 45 37 26 20 20 13 4 8 8 2 7 10 5 15 18 21 36 46 61
50 20 49 52 25 20 7 10 24 32 39 7 13 15 14 8 9 4 11 13 17 19 21 10 4 6 14 14 43 16 16 9 13 5 10 8 5 9 8 8 25 20 39 56 63
28 8 44 51 16 8 11 28 39 26 21 15 14 24 14 12 5 6 11 7 16 22 13 15 5 7 10 11 27 11 13 12 10 7 6 9 4 2 8 7 18 31 53 62 66
36 14 30 40 13 16 19 30 13 23 22 8 8 6 6 9 8 16 8 14 19 20 22 22 7 9 7 7 2 10 10 12 12 7 9 11 7 5 11 9 22 41 48 59 66
21 10 16 14 36 26 33 15 36 44 19 12 11 14 11 6 11 7 8 12 13 4 30 20 6 7 10 14 9 10 12 23 14 9 10 6 19 15 18 17 17 40 55 58 69
23 7 8 11 23 30 30 17 38 29 11 22 7 35 24 8 7 6 10 7 11 9 9 6 8 1 11 13 8 8 22 19 12 16 13 17 26 31 24 16 19 49 55 60 55
18 12 13 27 30 33 17 19 34 40 12 19 23 36 21 9 11 11 19 9 8 6 8 10 6 3 9 15 13 9 15 26 10 14 21 34 19 19 28 28 41 47 51 52 49
30 30 21 17 14 20 15 27 45 39 23 30 37 32 16 11 25 32 23 24 6 8 6 6 5 7 2 8 13 8 5 12 10 5 39 15 19 33 26 29 37 49 50 47 42
Wind_Direction_850mb
343 340 339 338 335 332 330 328 325 321 316 314 311 308 307 305 302 293 281 287 280 255 231 227 216 207 200 216 207 202 208 223 211 174 233 229 139 263 272 289 329 339 264 257 182
340 339 338 336 334 332 329 326 323 319 316 315 312 308 306 308 309 295 298 279 256 233 226 219 214 199 191 213 201 183 204 213 200 198 256 263 290 300 292 298 329 313 321 188 171
338 337 336 334 332 329 327 324 322 319 315 312 310 309 309 314 319 304 164 113 113 236 220 217 218 202 203 207 194 207 235 209 246 237 231 256 285 270 260 282 308 196 176 175 173
336 334 332 330 328 327 325 321 317 313 309 308 308 305 311 307 284 209 220 225 315 239 205 197 204 192 202 205 207 229 213 224 249 244 259 248 280 274 247 258 279 289 239 199 187
335 334 332 330 328 327 324 320 316 313 311 306 302 298 297 248 255 257 255 259 261 266 207 188 180 194 183 206 225 227 242 224 234 256 261 268 266 274 269 266 276 284 240 211 198
336 333 330 328 325 323 318 314 310 309 308 303 296 287 261 252 284 290 249 253 249 236 209 195 202 194 216 236 196 216 214 239 249 255 257 255 267 252 271 275 265 235 219 213 206
336 333 330 328 327 322 317 313 310 311 303 297 291 271 257 245 272 274 269 252 229 215 215 211 197 186 207 281 254 251 273 279 233 234 234 250 264 253 269 255 238 246 208 206 212
337 334 331 328 325 321 316 313 310 306 297 292 282 262 257 267 286 268 253 247 222 207 208 222 216 203 180 276 324 189 162 250 212 194 242 182 253 280 281 230 229 227 207 190 196
337 335 332 329 325 323 321 315 313 306 294 284 252 231 265 277 261 274 261 247 240 218 218 210 209 215 219 179 318 280 202 185 265 194 215 179 147 256 236 193 200 202 210 205 202
336 335 335 331 329 326 320 317 320 315 325 141 207 218 255 247 261 269 294 220 195 205 208 209 206 186 203 188 210 208 194 221 212 228 212 241 217 268 265 232 221 228 230 216 216
336 336 337 336 332 328 325 334 350 305 317 260 244 225 267 290 287 299 254 178 187 178 181 185 199 207 196 201 184 218 226 210 190 239 201 244 231 256 260 250 236 239 227 215 212
335 335 337 336 332 326 323 324 330 312 296 263 257 256 256 262 265 253 244 176 185 192 177 168 218 201 198 197 206 229 237 213 269 264 175 278 268 257 261 233 235 243 238 219 213
335 335 338 334 330 330 319 312 309 328 268 278 260 254 249 234 240 254 225 230 190 193 198 200 211 191 199 199 202 213 216 167 200 11 275 356 305 295 274 225 242 253 253 248 215
336 336 338 332 333 325 345 331 288 297 284 279 242 280 237 220 244 269 234 215 214 204 193 221 232 187 193 211 191 213 177 193 233 123 217 115 271 304 260 230 208 249 255 255 245
336 336 336 333 320 329 333 339 320 175 301 286 201 98 164 165 289 332 275 195 206 194 192 200 184 209 203 202 201 210 178 195 222 176 304 244 42 271 301 116 204 250 252 249 248
339 336 335 347 336 333 340 324 202 241 251 268 341 353 344 350 323 354 123 178 218 206 200 207 185 204 211 203 201 137 161 200 169 117 241 205 159 281 357 314 201 85 37 21 304
343 342 8 358 336 322 322 317 238 212 313 310 345 336 317 331 4 354 170 197 166 184 195 197 217 193 187 188 191 177 155 174 195 191 211 157 151 240 309 304 310 98 65 60 70
348 2 14 3 346 328 308 240 206 266 267 337 348 320 276 26 31 25 337 178 241 199 160 193 208 208 187 202 169 190 154 163 170 152 158 143 198 247 311 21 75 90 92 91 94
349 23 7 355 345 338 324 279 324 330 326 323 321 303 331 15 289 32 239 218 211 178 163 159 240 193 213 188 170 186 197 200 66 286 110 145 114 106 49 52 62 74 82 85 102
350 355 0 353 344 337 8 306 289 296 291 282 295 249 277 300 303 173 248 198 194 229 177 174 162 229 204 216 236 167 167 178 120 178 126 156 128 147 101 91 87 84 91 94 104
354 346 357 353 6 0 357 289 300 299 296 278 280 284 260 292 280 283 282 146 194 185 185 198 145 224 186 157 206 205 186 163 136 148 148 133 187 167 169 152 129 121 113 113 110
358 335 350 1 29 337 326 310 302 297 316 279 260 249 265 288 281 295 244 226 178 149 198 189 165 134 158 110 175 145 198 157 155 210 55 116 231 99 153 132 134 123 123 119 118
340 297 357 8 6 346 321 317 292 311 320 305 299 331 319 272 228 224 247 275 159 175 183 173 212 99 91 79 121 149 188 136 112 108 173 118 184 154 135 138 125 126 124 119 121
353 329 333 348 356 335 327 324 335 331 314 311 247 319 275 262 217 305 276 35 177 148 209 139 95 142 152 152 145 155 154 173 134 118 151 148 143 171 178 160 128 134 128 121 123
9 330 315 311 338 323 325 307 332 344 332 323 305 354 2 11 30 290 354 7 80 107 350 99 128 100 99 84 136 150 148 152 135 147 134 172 155 181 158 148 128 127 120 116 114
359 326 303 291 302 327 343 332 324 329 312 324 333 331 333 22 343 320 344 345 7 86 21 0 89 59 33 41 44 71 165 157 112 114 81 120 88 129 118 132 121 118 115 109 111
341 326 280 294 314 324 330 323 321 322 306 311 320 317 308 343 314 292 272 284 282 359 36 54 52 75 287 16 360 89 334 107 98 143 138 145 157 128 118 92 100 104 103 102 112